Satellite: HUBBLE
Catalog number: 20580
Epoch time:      10335.13645736
Element set:     682
Inclination:      028.4696 deg
RA of node:       229.8797 deg
Eccentricity:    0.0003774
Arg of perigee:   174.9798 deg
Mean anomaly:     185.0771 deg
Mean motion:   15.01107642 rev/day
Decay rate:       5.38e-06 rev/day^2
Epoch rev:           92986
Checksum:              338

Satellite: ISS
Catalog number: 25544
Epoch time:      10337.03168981
Element set:     383
Inclination:      051.6469 deg
RA of node:       086.4412 deg
Eccentricity:    0.0007476
Arg of perigee:   297.7478 deg
Mean anomaly:     038.0871 deg
Mean motion:   15.72785889 rev/day
Decay rate:     1.8970e-04 rev/day^2
Epoch rev:           69002
Checksum:              344

Satellite: CO-58
Catalog number: 28895
Epoch time:      10335.62349445
Element set:     741
Inclination:      097.9896 deg
RA of node:       214.3242 deg
Eccentricity:    0.0018959
Arg of perigee:   118.9213 deg
Mean anomaly:     241.3923 deg
Mean motion:   14.59973295 rev/day
Decay rate:       2.85e-06 rev/day^2
Epoch rev:           27141
Checksum:              347

Satellite: FALCON
Catalog number: 30776
Epoch time:      10336.78294639
Element set:     970
Inclination:      035.4320 deg
RA of node:       100.4904 deg
Eccentricity:    0.0000759
Arg of perigee:   283.7945 deg
Mean anomaly:     076.2687 deg
Mean motion:   15.03983971 rev/day
Decay rate:       8.72e-06 rev/day^2
Epoch rev:           20545
Checksum:              318

Satellite: MAST
Catalog number: 31126
Epoch time:      10335.62819763
Element set:    0026
Inclination:      097.9187 deg
RA of node:       008.8060 deg
Eccentricity:    0.0095564
Arg of perigee:   065.7670 deg
Mean anomaly:     295.3476 deg
Mean motion:   14.53648873 rev/day
Decay rate:       1.02e-06 rev/day^2
Epoch rev:           19238
Checksum:              318

Satellite: CAPE1
Catalog number: 31130
Epoch time:      10335.56538944
Element set:      44
Inclination:      097.9204 deg
RA of node:       005.8359 deg
Eccentricity:    0.0103626
Arg of perigee:   075.2336 deg
Mean anomaly:     286.0391 deg
Mean motion:   14.52259200 rev/day
Decay rate:       2.55e-06 rev/day^2
Epoch rev:           19195
Checksum:              283

Satellite: COMPASS
Catalog number: 32787
Epoch time:      10334.19851924
Element set:    0844
Inclination:      097.8759 deg
RA of node:       036.5064 deg
Eccentricity:    0.0016806
Arg of perigee:   104.3909 deg
Mean anomaly:     255.9206 deg
Mean motion:   14.82059765 rev/day
Decay rate:       2.51e-06 rev/day^2
Epoch rev:           14008
Checksum:              315

Satellite: AAUSAT2
Catalog number: 32788
Epoch time:      10336.75026251
Element set:     834
Inclination:      097.8761 deg
RA of node:       039.1854 deg
Eccentricity:    0.0017241
Arg of perigee:   099.9147 deg
Mean anomaly:     260.4069 deg
Mean motion:   14.82221652 rev/day
Decay rate:       8.36e-06 rev/day^2
Epoch rev:           14047
Checksum:              310

Satellite: DO-64
Catalog number: 32789
Epoch time:      10335.72511673
Element set:    0852
Inclination:      097.8845 deg
RA of node:       038.8579 deg
Eccentricity:    0.0016666
Arg of perigee:   099.2670 deg
Mean anomaly:     261.0418 deg
Mean motion:   14.82464611 rev/day
Decay rate:       5.12e-06 rev/day^2
Epoch rev:           14032
Checksum:              324

Satellite: CO-66
Catalog number: 32791
Epoch time:      10334.17857963
Element set:    0835
Inclination:      097.8771 deg
RA of node:       036.4768 deg
Eccentricity:    0.0017270
Arg of perigee:   103.2554 deg
Mean anomaly:     257.0563 deg
Mean motion:   14.81814114 rev/day
Decay rate:        3.1e-07 rev/day^2
Epoch rev:           14003
Checksum:              301

Satellite: RS-30
Catalog number: 32953
Epoch time:      10336.83481866
Element set:     263
Inclination:      082.5004 deg
RA of node:       284.8030 deg
Eccentricity:    0.0020113
Arg of perigee:   092.9215 deg
Mean anomaly:     267.4172 deg
Mean motion:   12.43009515 rev/day
Decay rate:        1.0e-07 rev/day^2
Epoch rev:           11469
Checksum:              264

Satellite: TACSAT-3
Catalog number: 35001
Epoch time:      10335.96885059
Element set:    0453
Inclination:      040.4562 deg
RA of node:       284.9067 deg
Eccentricity:    0.0021737
Arg of perigee:   184.7455 deg
Mean anomaly:     175.3144 deg
Mean motion:   15.43860657 rev/day
Decay rate:      6.860e-05 rev/day^2
Epoch rev:           08655
Checksum:              320

Satellite: PHARMSAT
Catalog number: 35002
Epoch time:      10335.94072729
Element set:    0427
Inclination:      040.4706 deg
RA of node:       282.6301 deg
Eccentricity:    0.0024171
Arg of perigee:   187.4758 deg
Mean anomaly:     172.5700 deg
Mean motion:   15.44156336 rev/day
Decay rate:      5.956e-05 rev/day^2
Epoch rev:           08657
Checksum:              292

Satellite: HAWKSAT1
Catalog number: 35003
Epoch time:      10336.89229098
Element set:     452
Inclination:      040.4605 deg
RA of node:       265.2970 deg
Eccentricity:    0.0023559
Arg of perigee:   218.8333 deg
Mean anomaly:     141.0748 deg
Mean motion:   15.49654360 rev/day
Decay rate:     1.5317e-04 rev/day^2
Epoch rev:            8685
Checksum:              304

